Location: Unspecified
(0.0000°N, 0.0000°E)
Time: 21:39:18
(UTC+01:00)

CZ-4B R/B - Visible Passes

Search period start: 20 November 2014 00:00
Search period end: 30 November 2014 00:00
Orbit: 492 x 674 km, 97.6° (Epoch: 19 November)

Date Brightness Start Highest point End Pass type
(mag) Time Alt. Az. Time Alt. Az. Time Alt. Az.
20 Nov 5.2 05:10:59 13° SSW 05:10:59 13° SSW 05:11:32 10° SSW visible
21 Nov 5.2 05:16:54 12° SW 05:16:54 12° SW 05:17:20 10° SSW visible
22 Nov 5.3 05:22:48 11° SW 05:22:48 11° SW 05:23:04 10° SW visible
23 Nov 5.3 05:28:42 10° SW 05:28:42 10° SW 05:28:45 10° SW visible
24 Nov 6.2 03:58:12 11° SE 03:58:12 11° SE 03:58:23 10° SE visible
25 Nov 6.0 04:04:06 13° SE 04:04:06 13° SE 04:04:49 10° SE visible
26 Nov 5.8 04:09:59 15° SE 04:09:59 15° SE 04:11:06 10° SSE visible
27 Nov 5.6 04:15:51 17° SE 04:15:51 17° SE 04:17:16 10° SSE visible
28 Nov 5.4 04:21:44 20° SSE 04:21:44 20° SSE 04:23:22 10° SSE visible
29 Nov 5.2 04:27:36 22° SSE 04:27:36 22° SSE 04:29:24 10° S visible
